Main page
METAR-TAF:

METAR-TAF

Airports :

Winter Haven's Gilbert Airport

Winter Haven, Florida, United States

latitude: 28-03-38N, longitude: 081-45-27W, elevation: 144 ft

Current weather observation

The report was made 1 hour and 10 minutes ago, at 12:53 UTC
Wind 13 mph from the Northeast with gusts up to 23 mph
Temperature 81°F
Humidity 70%
Pressure 30.06 in. Hg
Visibility: 10 miles
Overcast at a height of 3100 ft

METAR: KGIF 211253Z AUTO 05011G20KT 10SM OVC031 27/21 A3006 RMK AO2 SLP176 T02670211

Time: 10:03 (14:03 UTC)


TAF: missing

Weather observations and forecasts of more than 4000 airports (METAR and TAF reports).

The available stations are represented by yellow and red dots on the map.

Hover mouse over dot to see the name of the station.

Then click to see weather observations and forecasts.

To change the map : click on the green buttons with a black cross to zoom in, on the green button with a dash to zoom out, or on the green arrows for adjacent maps.


METAR-TAF: